• Join FlightAware (Why Join?)
  • Login
  • US Flag GB Flag 
05:48 EDT


 

Airport Tracker/Info


-or-


 

Live Flight TrackerFlight Track Log ✈ JBU1329 ✈ 13-May-2013 ✈ KBOS - KBWI

Flight Track Log - Related Links

Times and Time Zones

All times are in EDT time to prevent confusion due to time zone crossing. See the JBU1329 flight status page for this flight to view local times or setup timezone preferences in your user account.

Time Position Orientation Groundspeed Altitude Reporting Facility
EDT Latitude Longitude Course Direction KTS MPH feet Rate Location/Type
09:12 42.3500 -71.0167 228° Southwest 162 186 600  Level KA90
09:13 42.3108 -70.9156 118° Southeast 213 245 4,200 2,460 Climbing Boston Center
09:14 42.3325 -70.8253 72° East 246 283 7,000 3,000 Climbing Boston Center
09:15 42.3470 -70.7261 172° South  Level FlightAware Approximate
09:15 42.2958 -70.7308 118° Southeast 264 304 10,200  Level Boston Center
09:16 42.2919 -70.7288 228° Southwest  Level FlightAware Approximate
09:16 42.2231 -70.7356 183° South 207 238 12,600  Level Boston Center
09:17 42.2521 -70.7885 228° Southwest  Level FlightAware Approximate
09:17 42.1867 -70.8289 242° Southwest 188 216 15,000  Level Boston Center
09:18 42.1717 -70.9358 259° West 260 299 17,900 2,460 Climbing Boston Center
09:19 42.1542 -71.0511 258° West 294 338 20,000 2,160 Climbing Boston Center
09:20 42.1200 -71.1581 247° West 306 352 22,300 2,100 Climbing Boston Center
09:21 42.0839 -71.2708 247° West 318 366 24,200 1,860 Climbing Boston Center
09:22 42.0453 -71.3806 245° Southwest 318 366 26,100 1,500 Climbing Boston Center
09:24 42.0067 -71.4958 246° West 323 372 27,600 1,500 Climbing Boston Center
09:25 41.9536 -71.6389 244° Southwest 328 377 29,500 1,800 Climbing Boston Center
09:26 41.9169 -71.7539 247° West 328 377 31,200 1,200 Climbing Boston Center
09:27 41.8800 -71.8658 246° West 328 377 32,000 360 Climbing Boston Center
09:28 41.8389 -71.9831 245° Southwest 340 391 32,000  Level Boston Center
09:29 41.7997 -72.1031 246° West 345 397 32,000  Level Boston Center
09:30 41.7561 -72.2231 244° Southwest 345 397 32,000  Level Boston Center
09:31 41.7167 -72.3428 246° West 350 403 32,000  Level Boston Center
09:32 41.6750 -72.4650 246° West 356 410 32,000  Level Boston Center
09:33 41.6375 -72.5733 245° Southwest 356 410 32,000  Level Boston Center
09:34 41.5956 -72.6928 245° Southwest 361 415 32,000  Level Boston Center
09:35 41.5517 -72.8144 244° Southwest 361 415 32,000  Level Boston Center
09:36 41.5094 -72.9447 247° West 352 405 32,000  Level Boston Center
09:37 41.4650 -73.0661 244° Southwest 352 405 32,000  Level Boston Center
09:38 41.3936 -73.2658 245° Southwest 353 406 32,000  Level New York Center
09:39 41.3533 -73.3858 246° West 353 406 32,000  Level New York Center
09:40 41.3111 -73.5056 245° Southwest 360 414 32,000  Level New York Center
09:41 41.2606 -73.6222 240° Southwest 360 414 32,000  Level New York Center
09:42 41.1997 -73.7244 232° Southwest 365 420 32,000  Level New York Center
09:43 41.1367 -73.8292 231° Southwest 370 426 32,000  Level New York Center
09:44 41.0756 -73.9364 233° Southwest 370 426 32,000  Level New York Center
09:45 41.0122 -74.0381 230° Southwest 364 419 32,000 -60 Level New York Center
09:46 40.9489 -74.1419 231° Southwest 364 419 31,900 -1,020 Descending New York Center
09:47 40.8789 -74.2539 230° Southwest 364 419 30,000 -1,620 Descending New York Center
09:48 40.8264 -74.3444 233° Southwest 358 412 28,700 -1,020 Descending New York Center
09:49 40.7606 -74.4478 230° Southwest 353 406 28,000 -360 Descending New York Center
09:50 40.7100 -74.5381 234° Southwest 348 400 28,000 -180 Level New York Center
09:51 40.6439 -74.6411 230° Southwest 343 395 27,700 -600 Descending New York Center
09:52 40.5933 -74.7283 233° Southwest 338 389 26,800 -960 Descending New York Center
09:53 40.5231 -74.8281 227° Southwest 338 389 25,800 -960 Descending New York Center
09:54 40.4617 -74.9172 228° Southwest 338 389 24,900 -960 Descending New York Center
09:55 40.4022 -75.0036 228° Southwest 333 383 23,900 -1,320 Descending New York Center
09:56 40.3456 -75.0764 224° Southwest 333 383 22,300 -2,040 Descending New York Center
09:57 40.2861 -75.1625 228° Southwest 333 383 19,800 -2,220 Descending New York Center
09:58 40.2200 -75.2561 227° Southwest 328 377 18,000 -960 Descending New York Center
09:59 40.1583 -75.3392 226° Southwest 334 384 18,000  Level New York Center
10:00 40.0969 -75.4219 226° Southwest 327 376 18,000  Level New York Center
10:01 40.0439 -75.4969 227° Southwest 322 371 18,000  Level New York Center
10:02 39.9775 -75.5872 226° Southwest 322 371 18,000 -240 Level New York Center
10:03 39.9244 -75.6622 227° Southwest 317 365 17,600 -720 Descending New York Center
10:04 39.8703 -75.7639 235° Southwest 317 365 16,600 -960 Descending New York Center
10:05 39.8269 -75.8472 236° Southwest 317 365 15,800 -840 Descending New York Center
10:06 39.7747 -75.9461 236° Southwest 317 365 15,000 -1,140 Descending New York Center
10:09 39.6667 -76.1500 235° Southwest 273 314 12,000 -1,020 Descending Potomac TRACON
10:10 39.6167 -76.2333 232° Southwest 251 289 11,600 -1,200 Descending Potomac TRACON
10:11 39.5667 -76.2833 218° Southwest 260 299 9,600 -2,100 Descending Potomac TRACON
10:12 39.5000 -76.3500 218° Southwest 263 303 7,500 -2,100 Descending Potomac TRACON
10:13 39.4500 -76.4000 218° Southwest 257 296 5,400 -1,440 Descending Potomac TRACON
10:14 39.4000 -76.4500 218° Southwest 217 250 4,700 -1,020 Descending Potomac TRACON
10:15 39.3333 -76.4333 169° South 221 254 3,400 -900 Descending Potomac TRACON
10:16 39.2833 -76.4333 180° South 199 229 3,000 -240 Descending Potomac TRACON
10:17 39.2333 -76.4167 166° South 179 206 3,000  Level Potomac TRACON